{"data":{"norad_id":46144,"epoch":"2026-06-27T04:17:33.076320Z","epoch_age_seconds":7389992,"freshness":"OLD","line1":"1 46144U 20057AD  26178.17885505  .06114515  12207-4  72168-3 0  9992","line2":"2 46144  53.0214  66.0503 0009775 253.3345 106.6627 16.35665205312484","mean_motion":16.35665205,"eccentricity":0.0009775,"inclination_deg":53.0214,"raan_deg":66.0503,"arg_perigee_deg":253.3345,"mean_anomaly_deg":106.6627,"bstar":0.00072168,"rev_number":31248,"period_min":88.037576124877,"perigee_km":170.95112051615,"apogee_km":183.76711542678,"semimajor_km":6555.4961179715,"source":"CELESTRAK","updated_at":"2026-06-27T09:00:37.680876Z"}}